Flight Track Log - Related Links

Times and Time Zones

All times are in EDT time to prevent confusion due to time zone crossing. See the UPS2871 flight status page for this flight to view local times or setup timezone preferences in your user account.

Time Position Orientation Groundspeed Altitude Reporting Facility
EDT Latitude Longitude Course Direction KTS MPH feet Rate Location/Type
09:40AM 35.0389 -106.6107 44° Northeast 179 206 5,300  Level FlightAware ADS-B (KABQ)
09:40AM 35.0516 -106.5965 36° Northeast 187 215 6,200 2,308 Climbing FlightAware ADS-B (KABQ)
09:40AM 35.0674 -106.5897 North 212 244 6,800 1,650 Climbing FlightAware ADS-B (KABQ)
09:41AM 35.0865 -106.5902 355° North 241 277 7,300 1,733 Climbing FlightAware ADS-B (KABQ)
09:41AM 35.1191 -106.5928 357° North 269 310 8,100 2,133 Climbing FlightAware ADS-B (KABQ)
09:41AM 35.1443 -106.5943 357° North 285 328 8,900 2,195 Climbing FlightAware ADS-B (KABQ)
09:42AM 35.1724 -106.5957 358° North 298 343 9,600 2,615 Climbing FlightAware ADS-B (KABQ)
09:42AM 35.1988 -106.5965 North 303 349 10,600 3,458 Climbing FlightAware ADS-B (KABQ)
09:43AM 35.2559 -106.5887 North 307 353 13,000 3,536 Climbing FlightAware ADS-B (KABQ)
09:43AM 35.2788 -106.5828 19° North 306 352 13,900 3,243 Climbing FlightAware ADS-B
09:43AM 35.3047 -106.5622 49° Northeast 329 379 15,000 2,885 Climbing FlightAware ADS-B (KAEG)
09:44AM 35.3346 -106.5166 52° Northeast 351 404 16,400 2,000 Climbing FlightAware ADS-B (KABQ)
09:44AM 35.3632 -106.4582 71° East 399 459 17,100 1,826 Climbing FlightAware ADS-B (KAEG)
09:45AM 35.3807 -106.3745 76° East 422 486 18,500 2,559 Climbing FlightAware ADS-B
09:46AM 35.3971 -106.3015 74° East 435 501 20,000 2,571 Climbing FlightAware ADS-B (KABQ)
09:46AM 35.4149 -106.2236 75° East 452 520 21,200 2,500 Climbing FlightAware ADS-B (KABQ)
09:47AM 35.4369 -106.1254 75° East 461 531 23,000 2,541 Climbing FlightAware ADS-B (KABQ)
09:48AM 35.4629 -106.0101 74° East 472 543 24,800 1,935 Climbing FlightAware ADS-B
09:49AM 35.5298 -105.7167 76° East 516 594 28,000 1,272 Climbing FlightAware ADS-B
09:50AM 35.5562 -105.5980 76° East 517 595 28,000  Level FlightAware ADS-B
09:51AM 35.5756 -105.5106 75° East 515 593 28,000  Level FlightAware ADS-B
09:51AM 35.5941 -105.4267 75° East 513 590 28,000 1,323 Level FlightAware ADS-B
09:56AM 35.8873 -104.7127 75° East 433 498 34,900 1,505 Climbing FlightAware ADS-B (KANK)
09:56AM 35.9176 -104.6566 56° Northeast 490 564 35,700 1,806 Climbing FlightAware ADS-B (KANK)
09:57AM 35.9930 -104.5165 57° Northeast 486 559 37,700 1,604 Climbing FlightAware ADS-B (KANK)
09:58AM 36.0431 -104.4231 57° Northeast 485 558 38,400 1,068 Climbing FlightAware ADS-B (KANK)
09:59AM 36.0937 -104.3285 57° Northeast 485 558 39,000 429 Climbing FlightAware ADS-B (KANK)
09:59AM 36.1447 -104.2325 57° Northeast 486 559 39,000  Level Albuquerque Center
10:00AM 36.2192 -104.0928 57° Northeast 484 557 39,000  Level Albuquerque Center
10:06AM 36.6549 -103.2610 57° Northeast 495 570 39,000  Level FlightAware ADS-B (KANK)
10:07AM 36.6982 -103.1776 58° Northeast 496 571 39,000  Level FlightAware ADS-B (KANK)
10:08AM 36.7559 -103.0656 57° Northeast 497 572 39,000  Level FlightAware ADS-B (KANK)
10:08AM 36.7997 -102.9803 57° Northeast 499 574 39,000  Level FlightAware ADS-B (KANK)
10:09AM 36.8498 -102.8824 58° Northeast 501 577 39,000  Level FlightAware ADS-B (KANK)
10:09AM 36.8778 -102.8277 58° Northeast 501 577 39,000  Level FlightAware ADS-B (KANK)
10:10AM 36.9666 -102.6536 58° Northeast 502 578 39,000  Level FlightAware ADS-B (KANK)
10:11AM 37.0043 -102.5793 58° Northeast 502 578 39,000  Level FlightAware ADS-B (KANK)
10:11AM 37.0380 -102.5131 58° Northeast 502 578 39,000  Level FlightAware ADS-B (KANK)
10:12AM 37.0814 -102.4272 58° Northeast 500 575 39,000  Level Kansas City Center
10:13AM 37.1289 -102.3331 58° Northeast 500 575 39,000  Level Albuquerque Center
10:14AM 37.1983 -102.1944 58° Northeast 500 575 39,000  Level Albuquerque Center
10:14AM 37.2364 -102.1233 56° Northeast 499 574 39,000  Level Kansas City Center
10:15AM 37.3314 -101.9731 51° Northeast 494 568 39,000  Level Kansas City Center
10:16AM 37.4117 -101.8447 52° Northeast 491 565 39,000  Level Kansas City Center
10:17AM 37.5042 -101.6944 52° Northeast 489 563 39,000  Level Kansas City Center
10:18AM 37.5839 -101.5656 52° Northeast 487 560 39,000  Level Kansas City Center
10:19AM 37.6606 -101.4019 59° Northeast 487 560 39,000  Level Kansas City Center
10:20AM 37.7161 -101.2531 65° Northeast 487 560 39,000  Level Kansas City Center
10:21AM 37.7731 -101.1042 64° Northeast 487 560 39,000  Level Kansas City Center
10:22AM 37.8406 -100.9292 64° Northeast 488 562 39,000  Level Kansas City Center
10:23AM 37.8981 -100.7794 64° Northeast 487 560 39,000  Level Kansas City Center
10:25AM 37.9325 -100.5892 77° East 493 567 39,000  Level Kansas City Center
10:26AM 37.9472 -100.4219 84° East 495 570 39,000  Level Kansas City Center
10:27AM 37.9617 -100.2550 84° East 496 571 39,000  Level Kansas City Center
10:28AM 37.9789 -100.0603 84° East 497 572 39,000  Level Kansas City Center
10:29AM 37.9933 -99.8933 84° East 497 572 39,000  Level Kansas City Center
10:30AM 38.0100 -99.6986 84° East 497 572 39,000  Level Kansas City Center
10:31AM 38.0239 -99.5319 84° East 497 572 39,000  Level Kansas City Center
10:32AM 38.0386 -99.3533 84° East 497 572 39,000  Level Kansas City Center
10:33AM 38.0525 -99.1797 84° East 497 572 39,000  Level Kansas City Center
10:34AM 38.0664 -99.0061 84° East 496 571 39,000  Level Kansas City Center
10:35AM 38.0825 -98.7986 84° East 495 570 39,000  Level Kansas City Center
10:36AM 38.0956 -98.6253 84° East 494 568 39,000  Level Kansas City Center
10:37AM 38.1083 -98.4528 85° East 493 567 39,000  Level Kansas City Center
10:38AM 38.1208 -98.2797 85° East 492 566 39,000  Level Kansas City Center
10:39AM 38.1336 -98.1014 85° East 492 566 39,000  Level Kansas City Center
10:40AM 38.1456 -97.9289 85° East 491 565 39,000  Level Kansas City Center
10:41AM 38.1575 -97.7561 85° East 490 564 39,000  Level Kansas City Center
10:42AM 38.1689 -97.5833 85° East 489 563 39,000  Level Kansas City Center
10:43AM 38.1822 -97.3764 85° East 489 563 39,000  Level Kansas City Center
10:44AM 38.1936 -97.1992 85° East 489 563 39,000  Level Kansas City Center
10:45AM 38.2039 -97.0317 85° East 489 563 39,000  Level Kansas City Center
10:46AM 38.2144 -96.8594 85° East 489 563 39,000  Level Kansas City Center
10:47AM 38.2250 -96.6806 86° East 490 564 39,000  Level Kansas City Center
10:48AM 38.2344 -96.5136 86° East 491 565 39,000  Level Kansas City Center
10:49AM 38.2453 -96.3228 86° East 491 565 39,000  Level Kansas City Center
10:50AM 38.2544 -96.1494 86° East 492 566 39,000  Level Kansas City Center
10:51AM 38.2656 -95.9417 86° East 493 567 39,000  Level Kansas City Center
10:52AM 38.2744 -95.7675 86° East 494 568 39,000  Level Kansas City Center
10:53AM 38.2831 -95.5939 86° East 495 570 39,000  Level Kansas City Center
10:54AM 38.2914 -95.4192 86° East 496 571 39,000  Level Kansas City Center
10:56AM 38.2994 -95.2447 87° East 497 572 39,000  Level Kansas City Center
10:57AM 38.3089 -95.0353 87° East 497 572 39,000  Level Kansas City Center
10:58AM 38.3167 -94.8597 87° East 498 573 39,000  Level Kansas City Center
10:59AM 38.3242 -94.6803 87° East 499 574 39,000  Level Kansas City Center
11:00AM 38.3311 -94.5089 87° East 499 574 39,000  Level Kansas City Center
11:01AM 38.3378 -94.3328 87° East 500 575 39,000  Level Kansas City Center
11:02AM 38.3444 -94.1561 87° East 501 577 39,000  Level Kansas City Center
11:03AM 38.3519 -93.9456 87° East 502 578 39,000  Level Kansas City Center
11:04AM 38.3581 -93.7672 87° East 503 579 39,000  Level Kansas City Center
11:10AM 38.3882 -92.7113 88° East 512 589 39,000  Level FlightAware ADS-B (KSDL)
11:11AM 38.3924 -92.5324 88° East 511 588 39,000  Level FlightAware ADS-B
11:11AM 38.3950 -92.4175 89° East 512 589 39,000  Level FlightAware ADS-B
11:12AM 38.3990 -92.2201 89° East 512 589 39,000  Level FlightAware ADS-B
11:13AM 38.4008 -92.1277 89° East 513 590 39,000  Level FlightAware ADS-B
11:14AM 38.4026 -92.0337 89° East 513 590 39,000  Level FlightAware ADS-B
11:14AM 38.4047 -91.9153 89° East 512 589 39,000  Level Kansas City Center
11:15AM 38.4078 -91.7317 89° East 513 590 39,000  Level Kansas City Center
11:16AM 38.4106 -91.5478 89° East 515 593 39,000  Level Kansas City Center
11:17AM 38.4133 -91.3386 89° East 516 594 39,000  Level Kansas City Center
11:18AM 38.4153 -91.1553 89° East 518 596 39,000  Level Kansas City Center
11:19AM 38.4172 -90.9719 89° East 519 597 39,000  Level Kansas City Center
11:20AM 38.4189 -90.7881 89° East 520 598 39,000  Level Kansas City Center
11:21AM 38.4200 -90.5950 90° East 522 601 39,000  Level Kansas City Center
11:22AM 38.4211 -90.3711 90° East 524 603 39,000  Level Kansas City Center
11:23AM 38.4219 -90.1731 90° East 526 605 39,000  Level Kansas City Center
11:25AM 38.4219 -89.9964 90° East 527 606 39,000  Level Kansas City Center
11:27AM 38.4219 -89.6069 90° East 528 608 39,000 -161 Level Kansas City Center
11:28AM 38.4211 -89.4200 90° East 529 609 38,500 -1,488 Descending Kansas City Center
11:29AM 38.4203 -89.2167 90° East 528 608 35,900 -1,694 Descending Kansas City Center
11:30AM 38.4158 -89.0311 92° East 524 603 35,000 -435 Descending Kansas City Center
11:31AM 38.4061 -88.8372 94° East 522 601 35,000 -98 Level Kansas City Center
11:32AM 38.3983 -88.6622 93° East 521 600 34,800 -1,296 Descending Kansas City Center
11:33AM 38.3900 -88.4789 93° East 519 597 32,300 -2,448 Descending Kansas City Center
11:34AM 38.3846 -88.5250 94° East  Level FlightAware Approximate
11:34AM 38.3797 -88.2619 93° East 506 582 29,700  Level Kansas City Center
11:35AM 38.3757 -88.3612 94° East  Level FlightAware Approximate
11:35AM 38.3714 -88.0894 93° East 484 557 28,000  Level Kansas City Center
11:36AM 38.3667 -88.1975 90° East  Level FlightAware Approximate
11:36AM 38.3631 -87.9225 94° East 470 541 26,000  Level Kansas City Center
11:37AM 38.3547 -87.7628 94° East 447 514 24,300 -1,584 Descending Kansas City Center
11:38AM 38.3467 -87.6103 94° East 427 491 22,700 -1,563 Descending Kansas City Center
11:39AM 38.3358 -87.4108 94° East 403 464 20,600 -1,543 Descending Indianapolis Center
11:40AM 38.3264 -87.2706 95° East 400 460 19,100 -1,452 Descending Indianapolis Center
11:41AM 38.3083 -87.1236 99° East 400 460 17,600 -1,327 Descending Indianapolis Center
11:48AM 38.2066 -86.3353 100° East 297 342 9,300 -1,302 Descending FlightAware ADS-B
11:48AM 38.2033 -86.3110 99° East 293 337 8,900 -900 Descending FlightAware ADS-B
11:49AM 38.1942 -86.2420 99° East 279 321 8,400 -1,000 Descending FlightAware ADS-B
11:49AM 38.1850 -86.1741 100° East 276 318 7,600 -1,279 Descending FlightAware ADS-B
11:50AM 38.1801 -86.1363 100° East 276 318 7,100 -1,277 Descending FlightAware ADS-B
11:50AM 38.1750 -86.0977 99° East 275 316 6,600 -1,220 Descending FlightAware ADS-B
11:51AM 38.1697 -86.0427 96° East 271 312 5,900 -667 Descending FlightAware ADS-B
11:51AM 38.1652 -85.9882 96° East 236 272 5,800  Descending FlightAware ADS-B
11:52AM 38.1626 -85.9569 96° East 225 259 5,900 133 Climbing FlightAware ADS-B
11:52AM 38.1603 -85.9286 96° East 224 258 5,900  Level FlightAware ADS-B
11:52AM 38.1586 -85.9077 96° East 225 259 5,900  Level FlightAware ADS-B
11:53AM 38.1561 -85.8777 96° East 226 260 5,900  Level FlightAware ADS-B
11:53AM 38.1523 -85.8581 115° Southeast 232 267 5,900 -300 Level FlightAware ADS-B
11:53AM 38.1472 -85.8494 135° Southeast 235 270 5,800 -500 Descending FlightAware ADS-B
11:53AM 38.1486 -85.8514 143° Southeast 236 272 5,800 -706 Level FlightAware ADS-B
11:53AM 38.1330 -85.8392 164° South 234 269 5,600 -1,091 Descending FlightAware ADS-B
11:54AM 38.1103 -85.8314 166° South 234 269 5,200 -1,091 Descending FlightAware ADS-B
11:54AM 38.0918 -85.8257 169° South 235 270 4,800 -1,012 Descending FlightAware ADS-B
11:55AM 38.0224 -85.8033 152° Southeast 229 264 3,800 -850 Descending FlightAware ADS-B
11:56AM 37.9929 -85.7461 89° East 192 221 3,100 -750 Descending FlightAware ADS-B
11:57AM 38.0124 -85.6963 North 165 190 2,300 -400 Descending FlightAware ADS-B
11:58AM 38.0544 -85.7050 347° North 153 176 2,300 -303 Level FlightAware ADS-B
11:59AM 38.0928 -85.7171 345° North 131 151 1,700 -772 Descending FlightAware ADS-B
12:00PM 38.1145 -85.7247 346° North 133 153 1,000 -600 Descending FlightAware ADS-B
12:00PM 38.1333 -85.7333 North 132 152 1,000  Level Louisville TRACON
12:06PM 38.1667 -85.7333 North  Level FlightAware Approximate

Login

Don't have an account? Register now (free) for customized features, flight alerts, and more!